Location: Malanoce
(44.2500°N, 7.4667°E)
Time: 22:32:11
(UTC+00:00)

Geosat - Pass Details

Date: 17 November 2025
Orbit: 758 x 760 km, 108.0° (Epoch: 09 December)

Event Time Altitude Azimuth Distance (km) Brightness Sun altitude
Exits shadow 18:04:09 51° 72° (ENE) 955 4.0 -21.9°
Maximum altitude 18:04:29 52° 57° (ENE) 943 4.1 -21.9°
Drops below altitude 10° 18:09:20 10° 342° (NNW) 2,300 6.6 -22.8°
Sets 18:11:40 0° 338° (NNW) 3,230 7.5 -23.2°
